[[{"header":{"parameterUnit":"m.s-1","parameterCategory":1,"la1":30.2992,"la2":30.254,"lo1":-89.0895,"lo2":-89.0443,"dy":0.0025,"dx":0.0025,"nx":19,"ny":19,"refTime":"2026-03-22T03:00:00:Z","depth":0,"parameterNumber":2,"parameterNumberName":"U-component_of_WINDS"},"data":[0,0,0,3.7715,3.772,3.7961,3.7962,3.8273,3.8275,0,0,0,0,0,0,0,0,0,0,0,3.7644,3.7646,3.7714,3.772,3.7961,3.7962,3.8272,3.8275,0,0,0,0,0,0,0,0,0,0,0,3.7643,3.7646,3.7648,3.7721,3.7961,3.7962,3.8271,3.8089,0,0,0,0,0,0,0,0,0,0,3.7855,3.779,3.7645,3.7648,3.7723,3.796,3.7962,3.808,3.8101,3.8164,0,3.822,0,3.8253,3.8296,3.8297,0,0,0,3.7721,3.7773,3.7837,3.7649,3.7725,3.796,3.7852,3.8092,3.8114,3.8191,3.8225,3.8236,3.8258,3.8298,3.83,3.8663,3.8664,0,0,3.7707,3.7688,3.7821,3.7852,3.7814,3.7845,3.786,3.8105,3.8141,3.8226,3.8243,3.8263,3.83,3.8303,3.8661,3.8663,0,0,0,3.7669,3.7679,3.7737,3.7839,3.7882,3.7852,3.7869,3.813,3.8151,3.8247,3.8266,3.8302,3.8306,3.8659,3.8662,3.8725,0,0,0,3.7661,3.7657,3.7731,3.7722,3.7878,3.8009,3.7889,3.8134,3.8162,3.8265,3.8302,3.8309,3.8658,3.8661,3.8719,3.8758,0,0,0,3.7628,3.7653,3.7688,3.7721,3.7823,3.8006,3.804,3.814,3.8174,3.8298,3.831,3.8656,3.866,3.8714,3.8749,3.8845,0,0,0,3.7589,3.7743,3.7688,3.7869,3.7821,3.8043,3.8039,3.8206,3.8319,3.8304,3.8658,3.8662,3.8712,3.8744,3.884,3.8921,3.8954,0,0,3.7773,3.7765,3.7872,3.783,3.8056,3.8007,3.8244,3.8367,3.8397,3.8573,3.8582,3.8721,3.8749,3.8844,3.9146,3.9172,0,0,0,3.7924,3.8001,3.8065,3.817,3.8266,3.8352,3.844,3.8485,3.8634,3.8483,3.8783,3.8801,3.8857,3.8897,3.8919,3.8968,3.868,3.8679,3.8679,3.8158,3.8186,3.8365,3.8421,3.8524,3.8612,3.8698,3.8774,3.8775,3.8845,3.8897,3.9077,3.9122,3.9139,3.9189,3.8944,3.8944,3.8944,3.8945,3.8429,3.854,3.8535,3.8706,3.8735,3.8879,3.897,3.8965,3.9104,3.9041,3.9092,3.9018,3.9166,3.9212,3.895,3.8949,3.8948,3.8948,3.8947,3.8583,3.8641,3.8692,3.8846,3.8961,3.9014,3.9146,3.9169,3.9192,3.9243,3.9299,3.9298,3.9297,3.9268,3.9269,3.927,3.927,3.9271,3.9271,3.8722,3.8778,3.8885,3.8998,3.9067,3.9162,3.9251,3.932,3.9403,3.9409,3.941,3.9402,3.9176,3.9117,3.9281,3.9279,3.9278,3.9277,3.9276,3.8983,3.8927,3.9093,3.9162,3.9295,3.9407,3.9434,3.9573,3.9634,3.9698,3.968,3.9509,3.9503,3.9486,3.9437,3.9674,3.9674,3.9674,3.9674,3.9111,3.911,3.9283,3.9391,3.9501,3.9541,3.9728,3.9798,3.9863,3.9902,3.9871,3.9809,3.9791,3.9796,3.9772,3.9726,4.0032,4.0032,4.0032,3.9272,3.9281,3.9435,3.9495,3.96,3.969,3.9865,3.9991,4.0053,4.0047,3.9932,3.9917,3.9818,3.9784,3.9775,3.9737,3.9655,0,0]},{"header":{"parameterUnit":"m.s-1","parameterCategory":1,"la1":30.2992,"la2":30.254,"lo1":-89.0895,"lo2":-89.0443,"dy":0.0025,"dx":0.0025,"nx":19,"ny":19,"refTime":"2026-03-22T03:00:00:Z","depth":0,"parameterNumber":3,"parameterNumberName":"V-component_of_WINDS"},"data":[0,0,0,2.4203,2.4205,2.4323,2.4324,2.4476,2.4478,0,0,0,0,0,0,0,0,0,0,0,2.4169,2.417,2.4203,2.4206,2.4323,2.4324,2.4476,2.4478,0,0,0,0,0,0,0,0,0,0,0,2.4169,2.417,2.4171,2.4206,2.4323,2.4324,2.4476,2.4386,0,0,0,0,0,0,0,0,0,0,2.4271,2.4242,2.417,2.4171,2.4207,2.4323,2.4324,2.4382,2.4392,2.4423,0,2.4452,0,2.4467,2.4488,2.4488,0,0,0,2.4205,2.4233,2.4264,2.4172,2.4208,2.4323,2.427,2.4387,2.4398,2.4437,2.4455,2.446,2.447,2.4489,2.449,2.4676,2.4677,0,0,2.4198,2.4191,2.4256,2.4271,2.4253,2.4266,2.4274,2.4394,2.4413,2.4455,2.4464,2.4472,2.449,2.4491,2.4675,2.4676,0,0,0,2.418,2.4187,2.4214,2.4265,2.4286,2.427,2.4278,2.4408,2.4417,2.4465,2.4474,2.4491,2.4493,2.4674,2.4676,2.4714,0,0,0,2.4176,2.4176,2.4211,2.4208,2.4284,2.4349,2.4289,2.4409,2.4423,2.4473,2.4491,2.4494,2.4673,2.4675,2.4711,2.4734,0,0,0,2.4161,2.4174,2.4192,2.4208,2.4258,2.4347,2.4363,2.4412,2.4428,2.4489,2.4495,2.4673,2.4675,2.4708,2.4729,2.4781,0,0,0,2.4143,2.4225,2.4192,2.4287,2.4257,2.4369,2.4362,2.4447,2.4503,2.4492,2.4673,2.4676,2.4707,2.4727,2.4778,2.4824,2.4842,0,0,2.4243,2.4237,2.4293,2.4267,2.4383,2.4352,2.4474,2.4532,2.4544,2.4631,2.4636,2.4712,2.4729,2.4781,2.4946,2.496,0,0,0,2.4322,2.4362,2.4395,2.4448,2.4494,2.4535,2.4575,2.4596,2.467,2.4588,2.4745,2.4755,2.4785,2.4808,2.482,2.4847,2.4685,2.4685,2.4685,2.4454,2.4464,2.4558,2.4582,2.4633,2.4673,2.4715,2.4751,2.4747,2.4784,2.481,2.4909,2.4935,2.4944,2.4972,2.4834,2.4834,2.4835,2.4835,2.4601,2.466,2.4651,2.4739,2.4749,2.4822,2.4863,2.4857,2.4927,2.489,2.4918,2.4877,2.496,2.4984,2.4838,2.4837,2.4837,2.4837,2.4836,2.4689,2.4719,2.4743,2.4819,2.4877,2.4899,2.4966,2.4972,2.4979,2.5006,2.5035,2.5034,2.5035,2.5019,2.5019,2.502,2.502,2.502,2.5021,2.4771,2.4797,2.4853,2.4907,2.4941,2.4987,2.5027,2.5061,2.51,2.5099,2.51,2.5092,2.4966,2.4934,2.5026,2.5025,2.5024,2.5024,2.5023,2.4918,2.4885,2.4972,2.5006,2.507,2.5126,2.5133,2.5201,2.523,2.5263,2.5249,2.5154,2.5149,2.5139,2.5113,2.5246,2.5246,2.5246,2.5246,2.4992,2.499,2.5079,2.5133,2.5187,2.5202,2.5298,2.5329,2.5356,2.5374,2.5355,2.5321,2.5311,2.5312,2.5298,2.5274,2.5445,2.5445,2.5445,2.5083,2.5086,2.5167,2.5193,2.5243,2.5285,2.5376,2.5438,2.5462,2.5454,2.5388,2.538,2.5325,2.5306,2.5298,2.5277,2.5233,0,0]}]]